Flag for Switzerland Weather past 2 weeks in Bellinzona, Ticino, Switzerland

Now
45 °F

Cool.


Feels Like: 45 °F
Forecast: 41 / 69 °F
Wind: 2 mph from East

Location: Locarno-Magadino


UV Index: 3 (Moderate)

Visibility: N/A


Pressure: 29.75 "Hg

Humidity: 78%

Dew point: 39 °F

Location of BellinzonaLocation

Historic Weather in Bellinzona

°F

Bellinzona temperature yesterday

Maximum temperature yesterday: 61 °F (at 5:00 PM)
Minimum temperature yesterday: 39 °F (at 5:00 AM)
Average temperature yesterday: 50 °F

Past Weeks' High & Low Weather Summary

 TemperatureHumidityPressure
High75 °F (Apr 10, 6:00 PM)99% (Apr 5, 5:00 AM)30.19 "Hg (Apr 5, 5:00 AM)
Low36 °F (Apr 17, 7:00 AM)12% (Apr 9, 1:00 PM)29.64 "Hg (Apr 18, 8:00 PM)
Average58 °F53%29.98 "Hg
* Reported Apr 4 3:00 AM — Apr 19 3:00 AM, Bellinzona, Weather by CustomWeather, © 2014

Note: Actual official high and low records may vary slightly from our data, if they occured in-between our weather recording intervals... More about our weather records

Advertising

Historic Weather Conditions — Data for Previous 24 hours

 ConditionsComfort  
Time TempWeatherWind HumidityBarometerVisibility
3:00 AM
Apr 19
45 °FCool.2 mph78%29.75 "HgN/A
2:00 AM46 °FCool.5 mph70%29.76 "HgN/A
1:00 AM47 °FCool.12 mph67%29.75 "HgN/A
12:00 AM47 °FCool.17 mph67%29.75 "HgN/A
11:00 PM
Apr 18
46 °FCool.23 mph74%29.75 "HgN/A
10:00 PM53 °FCool.24 mph53%29.69 "HgN/A
9:00 PM54 °FCool.2 mph63%29.66 "HgN/A
8:00 PM55 °FCool.1 mph64%29.64 "HgN/A
7:00 PM57 °FRefreshingly cool.1 mph55%29.65 "HgN/A
6:00 PM58 °FRefreshingly cool.3 mph47%29.67 "HgN/A
5:00 PM61 °FRefreshingly cool.6 mph39%29.66 "HgN/A
4:00 PM60 °FRefreshingly cool.7 mph37%29.68 "HgN/A
3:00 PM60 °FRefreshingly cool.7 mph36%29.70 "HgN/A
2:00 PM59 °FRefreshingly cool.2 mph38%29.74 "HgN/A
1:00 PM56 °FRefreshingly cool.2 mph42%29.78 "HgN/A
12:00 PM54 °FCool.3 mph47%29.81 "HgN/A
11:00 AM53 °FCool.1 mph50%29.83 "HgN/A
10:00 AM50 °FCool.1 mph63%29.85 "HgN/A
9:00 AM46 °FCool.1 mph78%29.88 "HgN/A
8:00 AM43 °FQuite cool.1 mph85%29.89 "HgN/A
7:00 AM40 °FQuite cool.1 mph84%29.90 "HgN/A
6:00 AM40 °FChilly.1 mph83%29.93 "HgN/A
5:00 AM39 °FChilly.1 mph83%29.94 "HgN/A
4:00 AM40 °FQuite cool.No wind83%29.96 "HgN/A
Weather by CustomWeather, © 2014

See weather overview